This demonstration page uses our WeatherBlox Daily Observations layout. Learn more.

41.55636, -103.73856

Hourly Observations for October 18, 2019

Temp ( °F °C ) Dew Point ( °F °C ) Humidity (%) Winds ( mph kmh ) Pressure ( in mb ) Visibility ( mi km ) Precip ( " mm )
12:59 am 00:59 Clear 60 15.8 17 -8.3 18 18 SSW 6 9 29.55 1001 10 16.0934 0 0
1:58 am 01:58 Mostly Cloudy 61 16 15 -9.5 16 16 S 7 11 29.54 1000 10 16.0934 0 0
2:58 am 02:58 Mostly Cloudy 62 16.9 13 -10.7 14 14 S 7 11 29.52 1000 10 16.0934 0 0
3:58 am 03:58 Mostly Cloudy 58 14.7 15 -9.2 18 18 S 3 6 29.49 999 10 16.0934 0 0
4:58 am 04:58 Clear 46 7.7 19 -7.4 34 34 W 8 13 29.49 999 10 16.0934 0 0
5:58 am 05:58 Clear 50 10 16 -9.1 25 25 WSW 7 11 29.45 997 10 16.0934 0 0
6:58 am 06:58 Clear 46 7.6 18 -8 32 32 WSW 8 13 29.45 997 10 16.0934 0 0
7:58 am 07:58 Clear 45 7.2 18 -7.8 34 34 WSW 8 13 29.45 997 10 16.0934 0 0
8:58 am 08:58 Clear 45 7.4 19 -7.1 35 35 W 7 11 29.43 997 10 16.0934 0 0
9:58 am 09:58 Clear 42 5.8 20 -6.8 40 40 WSW 6 9 29.43 997 10 16.0934 0 0
10:58 am 10:58 Clear 42 5.7 19 -7 40 40 WNW 7 11 29.45 997 10 16.0934 0 0
11:58 am 11:58 Clear 46 8 19 -7.4 33 33 W 9 15 29.47 998 10 16.0934 0 0
12:58 pm 12:58 Clear 37 2.9 24 -4.5 59 59 SW 9 15 29.56 1001 10 16.0934 0 0
1:58 pm 13:58 Sunny 43 6.3 25 -4 48 48 WNW 3 6 29.57 1001 10 16.0934 0 0
2:58 pm 14:58 Sunny 51 10.8 28 -2.3 40 40 NW 22 35 29.59 1002 10 16.0934 0 0
3:58 pm 15:58 Sunny 52 11.3 30 -1.1 42 42 NNW 23 37 29.62 1003 10 16.0934 0 0
4:58 pm 16:58 Mostly Cloudy 52 11.3 32 -0.2 45 45 NNW 20 31 29.67 1005 10 16.0934 0 0
5:58 pm 17:58 Mostly Cloudy 52 10.9 33 0.5 49 49 NNW 18 30 29.68 1005 10 16.0934 0 0
6:58 pm 18:58 Mostly Cloudy 52 11.1 33 0.3 48 48 NNW 26 43 29.7 1006 10 16.0934 0 0
7:58 pm 19:58 Partly Cloudy 55 12.9 33 0.4 43 43 NW 21 33 29.67 1005 10 16.0934 0 0
8:58 pm 20:58 Mostly Sunny 55 12.6 30 -1.1 39 39 NW 18 30 29.68 1005 10 16.0934 0 0
9:58 pm 21:58 Sunny 57 14.1 29 -1.9 33 33 NNW 13 20 29.69 1005 10 16.0934 0 0
10:58 pm 22:58 Mostly Cloudy 55 13 27 -3 33 33 NNW 13 20 29.72 1007 10 16.0934 0 0
11:58 pm 23:58 Mostly Sunny 52 11.3 29 -1.4 42 42 N 6 9 29.73 1007 10 16.0934 0 0

Powered by AerisWeather